Satellite: NOAA-12 Catalog number: 21263 Epoch time: 08002.71271050 Element set: 0487 Inclination: 098.7637 deg RA of node: 004.7183 deg Eccentricity: 0.0011637 Arg of perigee: 247.2355 deg Mean anomaly: 112.7567 deg Mean motion: 14.25509599 rev/day Decay rate: -8.5e-07 rev/day^2 Epoch rev: 86467 Checksum: 312
Satellite: MET-3/5 Catalog number: 21655 Epoch time: 08002.89624598 Element set: 0373 Inclination: 082.5525 deg RA of node: 221.8385 deg Eccentricity: 0.0014602 Arg of perigee: 069.3279 deg Mean anomaly: 290.9408 deg Mean motion: 13.17013634 rev/day Decay rate: 5.1e-07 rev/day^2 Epoch rev: 78769 Checksum: 321
Satellite: MET-2/21 Catalog number: 22782 Epoch time: 08002.74131225 Element set: 0029 Inclination: 082.5460 deg RA of node: 243.5988 deg Eccentricity: 0.0023645 Arg of perigee: 039.5926 deg Mean anomaly: 320.6942 deg Mean motion: 13.83623504 rev/day Decay rate: 1.9e-07 rev/day^2 Epoch rev: 72411 Checksum: 287
Satellite: OKEAN-4 Catalog number: 23317 Epoch time: 08002.75881638 Element set: 0470 Inclination: 082.5391 deg RA of node: 110.3626 deg Eccentricity: 0.0021107 Arg of perigee: 319.2638 deg Mean anomaly: 040.6985 deg Mean motion: 14.82566286 rev/day Decay rate: 3.25e-06 rev/day^2 Epoch rev: 71362 Checksum: 296
Satellite: NOAA-14 Catalog number: 23455 Epoch time: 08002.87549225 Element set: 0957 Inclination: 098.9673 deg RA of node: 074.8879 deg Eccentricity: 0.0008721 Arg of perigee: 252.7083 deg Mean anomaly: 107.3103 deg Mean motion: 14.13733518 rev/day Decay rate: 1.57e-06 rev/day^2 Epoch rev: 67085 Checksum: 327
Satellite: SICH-1 Catalog number: 23657 Epoch time: 08002.73434666 Element set: 267 Inclination: 082.5265 deg RA of node: 251.3227 deg Eccentricity: 0.0022851 Arg of perigee: 310.7309 deg Mean anomaly: 049.1923 deg Mean motion: 14.81540316 rev/day Decay rate: 2.36e-06 rev/day^2 Epoch rev: 66557 Checksum: 290
Satellite: NOAA-15 Catalog number: 25338 Epoch time: 08002.70049288 Element set: 0297 Inclination: 098.5452 deg RA of node: 358.8914 deg Eccentricity: 0.0010853 Arg of perigee: 162.8047 deg Mean anomaly: 197.3477 deg Mean motion: 14.24679158 rev/day Decay rate: -6.3e-07 rev/day^2 Epoch rev: 50109 Checksum: 330
Satellite: RESURS Catalog number: 25394 Epoch time: 08002.66978749 Element set: 0832 Inclination: 098.4134 deg RA of node: 054.0130 deg Eccentricity: 0.0001704 Arg of perigee: 001.6321 deg Mean anomaly: 358.4865 deg Mean motion: 14.24151755 rev/day Decay rate: -2.0e-07 rev/day^2 Epoch rev: 49274 Checksum: 282
Satellite: FENGYUN1 Catalog number: 25730 Epoch time: 08002.94893365 Element set: 0363 Inclination: 098.7102 deg RA of node: 344.4643 deg Eccentricity: 0.0020299 Arg of perigee: 279.7731 deg Mean anomaly: 080.1147 deg Mean motion: 14.07654721 rev/day Decay rate: -6.1e-07 rev/day^2 Epoch rev: 44557 Checksum: 301
Satellite: OKEAN-0 Catalog number: 25860 Epoch time: 08002.54206122 Element set: 0254 Inclination: 097.7393 deg RA of node: 000.5716 deg Eccentricity: 0.0001865 Arg of perigee: 080.1784 deg Mean anomaly: 279.9629 deg Mean motion: 14.73493638 rev/day Decay rate: 1.5e-07 rev/day^2 Epoch rev: 45485 Checksum: 304
Satellite: NOAA-16 Catalog number: 26536 Epoch time: 08002.66969961 Element set: 0744 Inclination: 099.1420 deg RA of node: 348.3290 deg Eccentricity: 0.0010251 Arg of perigee: 337.7608 deg Mean anomaly: 022.3133 deg Mean motion: 14.12462729 rev/day Decay rate: -8.7e-07 rev/day^2 Epoch rev: 37526 Checksum: 305
Satellite: NOAA-17 Catalog number: 27453 Epoch time: 08002.87175747 Element set: 0741 Inclination: 098.5586 deg RA of node: 072.1540 deg Eccentricity: 0.0011105 Arg of perigee: 229.6340 deg Mean anomaly: 130.3867 deg Mean motion: 14.23937747 rev/day Decay rate: 7.3e-07 rev/day^2 Epoch rev: 28713 Checksum: 308
Satellite: NOAA-18 Catalog number: 28654 Epoch time: 08002.85453576 Element set: 0255 Inclination: 098.8514 deg RA of node: 305.9842 deg Eccentricity: 0.0015261 Arg of perigee: 064.9550 deg Mean anomaly: 295.3207 deg Mean motion: 14.11123867 rev/day Decay rate: -1.40e-06 rev/day^2 Epoch rev: 13501 Checksum: 297
/EX SB KEPS @ AMSAT $ORB08003.M Orbital Elements 08003.MISC
HR AMSAT ORBITAL ELEMENTS FOR MANNED AND MISCELLANEOUS SATELLITES FROM WA5QGD FORT WORTH,TX January 3, 2008 Send Subscribe/unsubscribe to KEPS at http://www.amsat.org/mailman/listinfo/keps BID: ORB08003.M TO ALL RADIO AMATEURS BT
Satellite: HUBBLE Catalog number: 20580 Epoch time: 08002.97699398 Element set: 0044 Inclination: 028.4695 deg RA of node: 327.2448 deg Eccentricity: 0.0003781 Arg of perigee: 063.7898 deg Mean anomaly: 296.3080 deg Mean motion: 15.00321266 rev/day Decay rate: 2.90e-06 rev/day^2 Epoch rev: 76999 Checksum: 331
Satellite: UARS Catalog number: 21701 Epoch time: 08002.94201162 Element set: 0258 Inclination: 056.9726 deg RA of node: 165.9136 deg Eccentricity: 0.0084913 Arg of perigee: 215.0105 deg Mean anomaly: 144.5353 deg Mean motion: 15.50068229 rev/day Decay rate: 5.226e-05 rev/day^2 Epoch rev: 89670 Checksum: 282
Satellite: PO-34 Catalog number: 25520 Epoch time: 08002.90117372 Element set: 901 Inclination: 028.4597 deg RA of node: 211.9834 deg Eccentricity: 0.0005255 Arg of perigee: 270.4070 deg Mean anomaly: 089.5927 deg Mean motion: 15.17108592 rev/day Decay rate: 3.94e-06 rev/day^2 Epoch rev: 50788 Checksum: 304
Satellite: ISS Catalog number: 25544 Epoch time: 08002.89295425 Element set: 0633 Inclination: 051.6378 deg RA of node: 154.0332 deg Eccentricity: 0.0002185 Arg of perigee: 028.3265 deg Mean anomaly: 108.9255 deg Mean motion: 15.78270614 rev/day Decay rate: 1.3774e-04 rev/day^2 Epoch rev: 52228 Checksum: 295
Satellite: OO-38 Catalog number: 26063 Epoch time: 08002.74656800 Element set: 0102 Inclination: 100.2153 deg RA of node: 047.1394 deg Eccentricity: 0.0036659 Arg of perigee: 318.7541 deg Mean anomaly: 041.0864 deg Mean motion: 14.35824149 rev/day Decay rate: -2.7e-07 rev/day^2 Epoch rev: 41568 Checksum: 284
Satellite: UWE-1 Catalog number: 28892 Epoch time: 08002.63891578 Element set: 0939 Inclination: 098.1130 deg RA of node: 260.0837 deg Eccentricity: 0.0016717 Arg of perigee: 206.9887 deg Mean anomaly: 153.0441 deg Mean motion: 14.59579211 rev/day Decay rate: 2.27e-06 rev/day^2 Epoch rev: 11630 Checksum: 312
Satellite: CO-58 Catalog number: 28895 Epoch time: 08002.40590657 Element set: 0913 Inclination: 098.1160 deg RA of node: 260.1450 deg Eccentricity: 0.0017385 Arg of perigee: 207.4780 deg Mean anomaly: 152.5471 deg Mean motion: 14.59620617 rev/day Decay rate: 5.9e-07 rev/day^2 Epoch rev: 11615 Checksum: 304
Satellite: NCUBE2 Catalog number: 28897 Epoch time: 08003.69205203 Element set: 443 Inclination: 098.1141 deg RA of node: 261.3438 deg Eccentricity: 0.0016724 Arg of perigee: 205.4915 deg Mean anomaly: 154.5473 deg Mean motion: 14.59788599 rev/day Decay rate: 1.17e-06 rev/day^2 Epoch rev: 10862 Checksum: 311
Satellite: FCAL Catalog number: 29667 Epoch time: 08003.71660486 Element set: 636 Inclination: 051.6310 deg RA of node: 116.2252 deg Eccentricity: 0.0010051 Arg of perigee: 053.2691 deg Mean anomaly: 306.9244 deg Mean motion: 15.97998611 rev/day Decay rate: 2.8431e-04 rev/day^2 Epoch rev: 5995 Checksum: 299
Satellite: FALCON Catalog number: 30776 Epoch time: 08002.56695501 Element set: 0233 Inclination: 035.4326 deg RA of node: 083.8925 deg Eccentricity: 0.0001613 Arg of perigee: 352.7363 deg Mean anomaly: 007.3329 deg Mean motion: 15.02838776 rev/day Decay rate: 2.84e-06 rev/day^2 Epoch rev: 04506 Checksum: 285
Satellite: MAST Catalog number: 31126 Epoch time: 08002.22468481 Element set: 0222 Inclination: 098.0622 deg RA of node: 073.1623 deg Eccentricity: 0.0095717 Arg of perigee: 129.0078 deg Mean anomaly: 231.9680 deg Mean motion: 14.53388904 rev/day Decay rate: -3.8e-07 rev/day^2 Epoch rev: 03776 Checksum: 288
Satellite: CAPE1 Catalog number: 31130 Epoch time: 08002.90302714 Element set: 202 Inclination: 098.0616 deg RA of node: 073.2065 deg Eccentricity: 0.0103814 Arg of perigee: 128.7508 deg Mean anomaly: 232.3022 deg Mean motion: 14.51917944 rev/day Decay rate: 1.20e-06 rev/day^2 Epoch rev: 3759 Checksum: 245
/EX